{"data":{"norad_id":44624,"epoch":"2026-09-20T01:30:02.246400Z","epoch_age_seconds":52230,"freshness":"FRESH","line1":"1 44624U 19067A   26263.06252600 -.00000046  00000+0  00000+0 0  9992","line2":"2 44624   0.0703 333.5633 0003186 201.1703 201.7483  1.00272775 25373","mean_motion":1.00272775,"eccentricity":0.0003186,"inclination_deg":0.0703,"raan_deg":333.5633,"arg_perigee_deg":201.1703,"mean_anomaly_deg":201.7483,"bstar":0,"rev_number":2537,"period_min":1436.0827253459,"perigee_km":35772.883835354,"apogee_km":35799.751025718,"semimajor_km":42164.454430536,"source":"CELESTRAK","updated_at":"2026-09-20T09:00:46.838950Z"}}